| time (UTC) | temp F | wind direction | speed knots | gust knots | rain 1hr in | rain 24hr in | rain mn in | humidity % | barometer mb |
| 20260504192016 | 78 | 0 | 7.8 | 13.0 | 0.00 | 0.00 | 0.00 | 33 | 1002.1 |
| 20260504191536 | 78 | 0 | 10.4 | 18.2 | 0.00 | 0.00 | 0.00 | 33 | 1002.2 |
| 20260504191016 | 78 | 0 | 11.3 | 20.0 | 0.00 | 0.00 | 0.00 | 33 | 1002.1 |
| 20260504190516 | 79 | 0 | 11.3 | 18.2 | 0.00 | 0.00 | 0.00 | 33 | 1002.1 |
| 20260504190015 | 79 | 0 | 12.2 | 20.0 | 0.00 | 0.00 | 0.00 | 32 | 1002.1 |
| 20260504185516 | 79 | 0 | 12.2 | 21.7 | 0.00 | 0.00 | 0.00 | 32 | 1002.1 |
| 20260504185036 | 79 | 0 | 10.4 | 17.4 | 0.00 | 0.00 | 0.00 | 33 | 1002.0 |
| 20260504184516 | 79 | 0 | 12.2 | 18.2 | 0.00 | 0.00 | 0.00 | 33 | 1002.0 |
| 20260504184016 | 79 | 0 | 10.4 | 18.2 | 0.00 | 0.00 | 0.00 | 33 | 1001.9 |
| 20260504183516 | 79 | 338 | 10.4 | 19.1 | 0.00 | 0.00 | 0.00 | 30 | 1001.9 |
| 20260504183016 | 79 | 338 | 12.2 | 20.0 | 0.00 | 0.00 | 0.00 | 32 | 1001.9 |
| 20260504182516 | 80 | 0 | 12.2 | 20.9 | 0.00 | 0.00 | 0.00 | 31 | 1001.9 |
| 20260504182016 | 80 | 0 | 9.6 | 16.5 | 0.00 | 0.00 | 0.00 | 31 | 1001.9 |
| 20260504181516 | 80 | 0 | 11.3 | 19.1 | 0.00 | 0.00 | 0.00 | 32 | 1002.0 |
| 20260504181016 | 80 | 0 | 10.4 | 19.1 | 0.00 | 0.00 | 0.00 | 31 | 1001.8 |
| 20260504180515 | 80 | 0 | 13.9 | 20.9 | 0.00 | 0.00 | 0.00 | 30 | 1001.8 |
| 20260504180015 | 80 | 293 | 7.8 | 13.9 | 0.00 | 0.00 | 0.00 | 31 | 1001.8 |
| 20260504175516 | 80 | 293 | 7.8 | 16.5 | 0.00 | 0.00 | 0.00 | 30 | 1001.8 |
| 20260504175015 | 80 | 293 | 7.8 | 14.8 | 0.00 | 0.00 | 0.00 | 29 | 1001.9 |
| 20260504174515 | 80 | 0 | 10.4 | 20.0 | 0.00 | 0.00 | 0.00 | 30 | 1001.9 |
| 20260504174015 | 80 | 293 | 7.0 | 14.8 | 0.00 | 0.00 | 0.00 | 29 | 1001.8 |
| 20260504173515 | 80 | 270 | 7.8 | 16.5 | 0.00 | 0.00 | 0.00 | 31 | 1001.9 |
| 20260504173015 | 80 | 293 | 7.8 | 12.2 | 0.00 | 0.00 | 0.00 | 31 | 1001.8 |
| 20260504172516 | 80 | 293 | 7.0 | 13.0 | 0.00 | 0.00 | 0.00 | 32 | 1001.8 |
| 20260504172016 | 79 | 293 | 7.0 | 13.0 | 0.00 | 0.00 | 0.00 | 31 | 1001.9 |
| 20260504171516 | 79 | 293 | 7.0 | 13.0 | 0.00 | 0.00 | 0.00 | 32 | 1001.9 |
| 20260504171036 | 79 | 270 | 7.0 | 12.2 | 0.00 | 0.00 | 0.00 | 32 | 1002.0 |
| 20260504170516 | 78 | 293 | 8.7 | 13.0 | 0.00 | 0.00 | 0.00 | 32 | 1002.0 |
| 20260504151016 | 71 | 225 | 2.6 | 5.2 | 0.00 | 0.00 | 0.00 | 44 | 1002.1 |
| 20260504150516 | 71 | 248 | 2.6 | 7.0 | 0.00 | 0.00 | 0.00 | 40 | 1002.1 |
| 20260504141016 | 63 | 270 | 1.7 | 4.3 | 0.00 | 0.00 | 0.00 | 51 | 1002.4 |
| 20260504140536 | 63 | 270 | 2.6 | 4.3 | 0.00 | 0.00 | 0.00 | 53 | 1002.5 |
| 20260504130516 | 55 | 293 | 3.5 | 6.1 | 0.00 | 0.00 | 0.00 | 73 | 1003.0 |
| 20260504110516 | 46 | 0.0 | 0.0 | 0.00 | 0.00 | 0.00 | 87 | 1002.1 | |
| 20260504100516 | 46 | 0.0 | 0.0 | 0.00 | 0.00 | 0.00 | 86 | 1002.3 | |
| 20260504081516 | 51 | 0.0 | 1.7 | 0.00 | 0.00 | 0.00 | 75 | 1003.3 | |
| 20260504081016 | 51 | 203 | 0.9 | 2.6 | 0.00 | 0.00 | 0.00 | 75 | 1003.2 |
| 20260504080516 | 51 | 203 | 1.7 | 2.6 | 0.00 | 0.00 | 0.00 | 76 | 1003.3 |
| 20260504050516 | 55 | 0.0 | 0.0 | 0.00 | 0.00 | 0.00 | 74 | 1005.9 | |
| 20260504050016 | 55 | 0.0 | 0.0 | 0.00 | 0.00 | 0.00 | 73 | 1006.0 | |
| 20260504045517 | 55 | 0.0 | 0.0 | 0.00 | 0.00 | 0.00 | 73 | 1006.1 | |
| 20260504045018 | 55 | 0.0 | 0.0 | 0.00 | 0.00 | 0.00 | 72 | 1006.2 | |
| 20260504044517 | 55 | 0.0 | 0.0 | 0.00 | 0.00 | 0.00 | 71 | 1006.2 | |
| 20260504044019 | 56 | 0.0 | 0.0 | 0.00 | 0.00 | 0.00 | 70 | 1006.2 | |
| 20260504043516 | 56 | 0.0 | 1.7 | 0.00 | 0.00 | 0.00 | 69 | 1006.2 | |
| 20260504043017 | 56 | 0.0 | 0.9 | 0.00 | 0.00 | 0.00 | 68 | 1006.3 | |
| 20260504042518 | 56 | 203 | 0.9 | 2.6 | 0.00 | 0.00 | 0.00 | 68 | 1006.3 |
| 20260504042018 | 57 | 203 | 0.9 | 1.7 | 0.00 | 0.00 | 0.00 | 65 | 1006.3 |
| 20260504041538 | 58 | 0.0 | 1.7 | 0.00 | 0.00 | 0.00 | 63 | 1006.4 | |
| 20260504041016 | 58 | 0.0 | 0.0 | 0.00 | 0.00 | 0.00 | 58 | 1006.4 | |
| 20260504040518 | 59 | 0.0 | 0.0 | 0.00 | 0.00 | 0.00 | 58 | 1006.4 | |
| 20260504040016 | 59 | 0.0 | 0.0 | 0.00 | 0.00 | 0.00 | 57 | 1006.6 | |
| 20260504035536 | 59 | 0.0 | 0.0 | 0.00 | 0.00 | 0.00 | 57 | 1006.6 | |
| 20260504035016 | 59 | 0.0 | 0.0 | 0.00 | 0.00 | 0.00 | 56 | 1006.5 | |
| 20260504034516 | 59 | 0.0 | 1.7 | 0.00 | 0.00 | 0.00 | 57 | 1006.6 | |
| 20260504034016 | 60 | 0.0 | 0.9 | 0.00 | 0.00 | 0.00 | 57 | 1006.8 | |
| 20260504033516 | 60 | 203 | 0.9 | 2.6 | 0.00 | 0.00 | 0.00 | 57 | 1006.8 |
| 20260504033016 | 59 | 248 | 1.7 | 2.6 | 0.00 | 0.00 | 0.00 | 55 | 1006.8 |
| 20260504032516 | 59 | 0.0 | 1.7 | 0.00 | 0.00 | 0.00 | 57 | 1006.9 | |
| 20260504032016 | 59 | 0.0 | 0.9 | 0.00 | 0.00 | 0.00 | 55 | 1006.8 | |
| 20260504031516 | 59 | 248 | 0.9 | 1.7 | 0.00 | 0.00 | 0.00 | 57 | 1006.9 |
| 20260504031016 | 60 | 0.0 | 1.7 | 0.00 | 0.00 | 0.00 | 56 | 1006.9 | |
| 20260504030536 | 60 | 248 | 0.9 | 1.7 | 0.00 | 0.00 | 0.00 | 57 | 1006.9 |
| 20260504030016 | 61 | 0.0 | 2.6 | 0.00 | 0.00 | 0.00 | 58 | 1006.9 | |
| 20260504025516 | 61 | 0.0 | 1.7 | 0.00 | 0.00 | 0.00 | 56 | 1007.0 | |
| 20260504025016 | 61 | 0.0 | 0.9 | 0.00 | 0.00 | 0.00 | 49 | 1006.9 | |
| 20260504024516 | 61 | 0.0 | 0.9 | 0.00 | 0.00 | 0.00 | 50 | 1006.9 | |
| 20260504024056 | 62 | 315 | 0.9 | 1.7 | 0.00 | 0.00 | 0.00 | 50 | 1007.0 |
| 20260504023516 | 62 | 0.0 | 1.7 | 0.00 | 0.00 | 0.00 | 50 | 1007.1 | |
| 20260504023016 | 62 | 0.0 | 0.0 | 0.00 | 0.00 | 0.00 | 51 | 1007.0 | |
| 20260504022516 | 63 | 0.0 | 0.0 | 0.00 | 0.00 | 0.00 | 51 | 1007.0 | |
| 20260504022016 | 63 | 0.0 | 0.0 | 0.00 | 0.00 | 0.00 | 47 | 1007.0 | |
| 20260504021516 | 63 | 0.0 | 1.7 | 0.00 | 0.00 | 0.00 | 47 | 1007.0 | |
| 20260504021016 | 63 | 315 | 0.9 | 1.7 | 0.00 | 0.00 | 0.00 | 48 | 1007.1 |
| 20260504020516 | 64 | 0.0 | 2.6 | 0.00 | 0.00 | 0.00 | 46 | 1007.1 | |
| 20260504020016 | 64 | 0.0 | 0.0 | 0.00 | 0.00 | 0.00 | 45 | 1007.1 | |
| 20260504015516 | 65 | 0.0 | 0.9 | 0.00 | 0.00 | 0.00 | 44 | 1007.3 | |
| 20260504015056 | 65 | 0.0 | 0.9 | 0.00 | 0.00 | 0.00 | 42 | 1007.2 | |
| 20260504014516 | 66 | 0.0 | 0.9 | 0.00 | 0.00 | 0.00 | 41 | 1007.3 | |
| 20260504014017 | 66 | 0.0 | 0.0 | 0.00 | 0.00 | 0.00 | 39 | 1007.3 | |
| 20260504013516 | 67 | 0.0 | 0.0 | 0.00 | 0.00 | 0.00 | 39 | 1007.3 | |
| 20260504013016 | 67 | 0.0 | 0.9 | 0.00 | 0.00 | 0.00 | 40 | 1007.3 | |
| 20260504012536 | 68 | 315 | 0.9 | 0.9 | 0.00 | 0.00 | 0.00 | 37 | 1007.3 |
| 20260504012036 | 69 | 0.0 | 0.0 | 0.00 | 0.00 | 0.00 | 37 | 1007.3 | |
| 20260504011516 | 70 | 0.0 | 0.0 | 0.00 | 0.00 | 0.00 | 36 | 1007.3 | |
| 20260504011016 | 70 | 0.0 | 0.0 | 0.00 | 0.00 | 0.00 | 35 | 1007.4 | |
| 20260504010516 | 71 | 0.0 | 0.0 | 0.00 | 0.00 | 0.00 | 34 | 1007.4 | |
| 20260504010016 | 72 | 0.0 | 0.0 | 0.00 | 0.00 | 0.00 | 35 | 1007.6 | |
| 20260504005516 | 73 | 0.0 | 0.0 | 0.00 | 0.00 | 0.00 | 37 | 1007.6 | |
| 20260504005016 | 74 | 0.0 | 0.0 | 0.00 | 0.00 | 0.00 | 34 | 1007.6 | |
| 20260504004516 | 75 | 0.0 | 0.9 | 0.00 | 0.00 | 0.00 | 31 | 1007.7 | |
| 20260504004016 | 75 | 0.0 | 1.7 | 0.00 | 0.00 | 0.00 | 30 | 1007.7 | |
| 20260504003516 | 75 | 315 | 0.9 | 3.5 | 0.00 | 0.00 | 0.00 | 28 | 1007.7 |
| 20260504003016 | 76 | 293 | 0.9 | 2.6 | 0.00 | 0.00 | 0.00 | 28 | 1007.8 |
| 20260504002516 | 76 | 293 | 1.7 | 3.5 | 0.00 | 0.00 | 0.00 | 28 | 1007.9 |
| 20260504002016 | 76 | 338 | 1.7 | 3.5 | 0.00 | 0.00 | 0.00 | 28 | 1008.0 |
| 20260504001516 | 76 | 293 | 1.7 | 4.3 | 0.00 | 0.00 | 0.00 | 28 | 1008.0 |
| 20260504001016 | 76 | 293 | 1.7 | 3.5 | 0.00 | 0.00 | 0.00 | 28 | 1008.1 |
| 20260504000516 | 76 | 293 | 1.7 | 4.3 | 0.00 | 0.00 | 0.00 | 28 | 1008.2 |
| 20260504000016 | 76 | 293 | 2.6 | 3.5 | 0.00 | 0.00 | 0.00 | 29 | 1008.2 |
| 20260503235536 | 76 | 293 | 3.5 | 5.2 | 0.00 | 0.00 | 0.00 | 28 | 1008.3 |
| 20260503235016 | 76 | 270 | 3.5 | 6.1 | 0.00 | 0.00 | 0.00 | 28 | 1008.3 |
| 20260503234516 | 76 | 270 | 1.7 | 4.3 | 0.00 | 0.00 | 0.00 | 28 | 1008.3 |
| 20260503234036 | 76 | 293 | 2.6 | 5.2 | 0.00 | 0.00 | 0.00 | 27 | 1008.3 |
| 20260503233516 | 76 | 293 | 1.7 | 4.3 | 0.00 | 0.00 | 0.00 | 27 | 1008.3 |
| 20260503233016 | 76 | 270 | 2.6 | 4.3 | 0.00 | 0.00 | 0.00 | 27 | 1008.3 |
| 20260503232516 | 76 | 338 | 3.5 | 8.7 | 0.00 | 0.00 | 0.00 | 27 | 1008.3 |
| 20260503232016 | 76 | 270 | 3.5 | 7.0 | 0.00 | 0.00 | 0.00 | 27 | 1008.3 |
| 20260503231516 | 76 | 270 | 1.7 | 6.1 | 0.00 | 0.00 | 0.00 | 29 | 1008.4 |
| 20260503231016 | 76 | 225 | 2.6 | 6.1 | 0.00 | 0.00 | 0.00 | 27 | 1008.3 |
| 20260503230516 | 77 | 315 | 1.7 | 2.6 | 0.00 | 0.00 | 0.00 | 31 | 1008.5 |
| 20260503230016 | 76 | 270 | 0.9 | 2.6 | 0.00 | 0.00 | 0.00 | 27 | 1008.4 |
| 20260503225516 | 76 | 270 | 1.7 | 5.2 | 0.00 | 0.00 | 0.00 | 28 | 1008.4 |
| 20260503225016 | 76 | 270 | 3.5 | 7.0 | 0.00 | 0.00 | 0.00 | 28 | 1008.6 |
| 20260503224516 | 76 | 293 | 4.3 | 7.0 | 0.00 | 0.00 | 0.00 | 27 | 1008.6 |
| 20260503224016 | 76 | 270 | 3.5 | 7.8 | 0.00 | 0.00 | 0.00 | 28 | 1008.6 |
| 20260503223516 | 76 | 270 | 3.5 | 7.0 | 0.00 | 0.00 | 0.00 | 28 | 1008.6 |
| 20260503223016 | 76 | 270 | 3.5 | 7.0 | 0.00 | 0.00 | 0.00 | 29 | 1008.6 |
| 20260503222516 | 76 | 248 | 4.3 | 8.7 | 0.00 | 0.00 | 0.00 | 29 | 1008.6 |
| 20260503222016 | 76 | 293 | 3.5 | 7.8 | 0.00 | 0.00 | 0.00 | 31 | 1008.7 |
| 20260503221536 | 77 | 225 | 2.6 | 7.8 | 0.00 | 0.00 | 0.00 | 32 | 1008.9 |
| 20260503221016 | 76 | 270 | 4.3 | 8.7 | 0.00 | 0.00 | 0.00 | 29 | 1008.9 |
| 20260503220516 | 76 | 270 | 1.7 | 6.1 | 0.00 | 0.00 | 0.00 | 34 | 1009.0 |
| 20260503220016 | 76 | 293 | 3.5 | 7.0 | 0.00 | 0.00 | 0.00 | 30 | 1008.9 |
| 20260503215516 | 76 | 270 | 3.5 | 7.0 | 0.00 | 0.00 | 0.00 | 31 | 1009.0 |
| 20260503215016 | 76 | 203 | 2.6 | 7.0 | 0.00 | 0.00 | 0.00 | 36 | 1008.9 |
| 20260503214516 | 76 | 248 | 4.3 | 7.8 | 0.00 | 0.00 | 0.00 | 34 | 1009.0 |
| 20260503214016 | 76 | 248 | 4.3 | 7.8 | 0.00 | 0.00 | 0.00 | 33 | 1009.0 |
| 20260503213516 | 76 | 293 | 4.3 | 7.8 | 0.00 | 0.00 | 0.00 | 31 | 1009.2 |
| 20260503213016 | 76 | 270 | 4.3 | 8.7 | 0.00 | 0.00 | 0.00 | 30 | 1009.3 |
| 20260503212536 | 76 | 203 | 2.6 | 7.0 | 0.00 | 0.00 | 0.00 | 31 | 1009.4 |
| 20260503212016 | 76 | 225 | 2.6 | 4.3 | 0.00 | 0.00 | 0.00 | 35 | 1009.4 |
| 20260503211516 | 75 | 180 | 1.7 | 3.5 | 0.00 | 0.00 | 0.00 | 31 | 1009.5 |
| 20260503211036 | 75 | 270 | 1.7 | 4.3 | 0.00 | 0.00 | 0.00 | 31 | 1009.5 |
| 20260503210516 | 75 | 248 | 2.6 | 7.0 | 0.00 | 0.00 | 0.00 | 30 | 1009.5 |
| 20260503210016 | 76 | 248 | 4.3 | 11.3 | 0.00 | 0.00 | 0.00 | 32 | 1009.8 |
| 20260503205516 | 76 | 270 | 2.6 | 9.6 | 0.00 | 0.00 | 0.00 | 35 | 1009.9 |
| 20260503205016 | 75 | 293 | 3.5 | 7.0 | 0.00 | 0.00 | 0.00 | 34 | 1010.0 |
| 20260503204516 | 75 | 270 | 3.5 | 7.0 | 0.00 | 0.00 | 0.00 | 33 | 1010.0 |
| 20260503204016 | 75 | 0 | 3.5 | 8.7 | 0.00 | 0.00 | 0.00 | 31 | 1010.0 |
| 20260503203516 | 75 | 293 | 3.5 | 7.0 | 0.00 | 0.00 | 0.00 | 30 | 1010.1 |
| 20260503203016 | 75 | 270 | 3.5 | 7.8 | 0.00 | 0.00 | 0.00 | 32 | 1010.2 |
| 20260503202536 | 75 | 315 | 4.3 | 9.6 | 0.00 | 0.00 | 0.00 | 31 | 1010.2 |
| 20260503202016 | 75 | 0 | 7.0 | 13.0 | 0.00 | 0.00 | 0.00 | 30 | 1010.3 |
| 20260503201516 | 74 | 248 | 2.6 | 6.1 | 0.00 | 0.00 | 0.00 | 32 | 1010.2 |
| 20260503201016 | 74 | 270 | 2.6 | 5.2 | 0.00 | 0.00 | 0.00 | 34 | 1010.3 |
| 20260503200516 | 74 | 68 | 0.9 | 4.3 | 0.00 | 0.00 | 0.00 | 32 | 1010.3 |
| 20260503200036 | 74 | 293 | 4.3 | 8.7 | 0.00 | 0.00 | 0.00 | 30 | 1010.5 |
| 20260503195516 | 74 | 0 | 6.1 | 15.6 | 0.00 | 0.00 | 0.00 | 30 | 1010.6 |
| 20260503195016 | 74 | 0 | 3.5 | 8.7 | 0.00 | 0.00 | 0.00 | 31 | 1010.7 |
| 20260503194536 | 73 | 0 | 9.6 | 16.5 | 0.00 | 0.00 | 0.00 | 31 | 1010.7 |
| 20260503194016 | 73 | 0 | 7.0 | 16.5 | 0.00 | 0.00 | 0.00 | 31 | 1010.7 |
| 20260503193516 | 73 | 0 | 5.2 | 9.6 | 0.00 | 0.00 | 0.00 | 31 | 1010.6 |
| 20260503193016 | 73 | 338 | 4.3 | 9.6 | 0.00 | 0.00 | 0.00 | 33 | 1010.8 |
| 20260503192516 | 72 | 0 | 6.1 | 12.2 | 0.00 | 0.00 | 0.00 | 31 | 1010.7 |